• Join FlightAware (Why Join?)
  • Login
  • US Flag GB Flag 
05:47 EDT


 

Airport Tracker/Info


-or-


 

Live Flight TrackerFlight Track Log ✈ N114SP ✈ 30-Aug-2013 ✈ KSTP - KLXL

Flight Track Log - Related Links

Times and Time Zones

All times are in EDT time to prevent confusion due to time zone crossing. See the N114SP flight status page for this flight to view local times or setup timezone preferences in your user account.

Time Position Orientation Groundspeed Altitude Reporting Facility
EDT Latitude Longitude Course Direction KTS MPH feet Rate Location/Type
14:27 44.9667 -93.0500 319° Northwest 81 93 2,100  Level Minneapolis TRACON
14:28 45.0000 -93.0333 19° North 82 94 2,800 720 Climbing Minneapolis TRACON
14:29 45.0167 -93.0333 360° North 88 101 3,600 600 Climbing Minneapolis TRACON
14:30 45.0333 -93.0333 360° North 86 99 4,100 600 Climbing Minneapolis TRACON
14:31 45.0667 -93.0333 360° North 82 94 4,800 480 Climbing Minneapolis TRACON
14:32 45.0558 -93.2156 319° Northwest  Level FlightAware Approximate
14:32 45.0833 -93.0333 360° North 96 110 5,100  Level Minneapolis TRACON
14:33 45.1167 -93.0333 360° North 116 133 5,100  Level Minneapolis TRACON
14:34 45.1500 -93.0667 325° Northwest 127 146 5,100  Level Minneapolis TRACON
14:35 45.1667 -93.1000 305° West 135 155 5,100  Level Minneapolis TRACON
14:36 45.2000 -93.1500 313° West 134 154 5,100 240 Level Minneapolis TRACON
14:37 45.2181 -93.1875 304° West 103 119 5,800 360 Climbing Minneapolis Center
14:38 45.2344 -93.2167 309° West 96 110 6,100 120 Climbing Minneapolis Center
14:39 45.2558 -93.2475 315° West 110 127 6,100  Level Minneapolis Center
14:40 45.2800 -93.2828 314° West 122 140 6,100  Level Minneapolis Center
14:41 45.3047 -93.3175 315° West 125 144 6,100  Level Minneapolis Center
14:42 45.3292 -93.3544 313° West 126 145 6,100  Level Minneapolis Center
14:43 45.3583 -93.3981 314° West 127 146 6,100 -60 Level Minneapolis Center
14:44 45.3831 -93.4361 313° West 130 150 6,000 -60 Descending Minneapolis Center
14:45 45.4136 -93.4814 314° West 131 151 6,000  Level Minneapolis Center
14:46 45.4394 -93.5178 315° West 131 151 6,000  Level Minneapolis Center
14:47 45.4642 -93.5544 314° West 130 150 6,000  Level Minneapolis Center
14:49 45.4880 -93.5929 310° West  Level Estimated
14:50 45.5200 -93.6383 310° West 133 153 6,000  Level Minneapolis Center
14:51 45.5444 -93.6794 310° West 135 155 6,000  Level Minneapolis Center
14:52 45.5689 -93.7189 312° West 134 154 6,000  Level Minneapolis Center
14:53 45.5928 -93.7594 310° West 134 154 6,000  Level Minneapolis Center
14:54 45.6172 -93.7992 311° West 133 153 6,000  Level Minneapolis Center
14:55 45.6458 -93.8481 310° West 133 153 6,000 -300 Level Minneapolis Center
14:56 45.6678 -93.8778 317° Northwest 136 157 5,500 -660 Descending Minneapolis Center
14:57 45.7011 -93.9311 312° West 148 170 4,700 -660 Descending Minneapolis Center
14:58 45.7308 -93.9769 313° West 156 180 4,000 -600 Descending Minneapolis Center